Find WHDW 20-02

NORAD ID: 68130 Int'l Des: 2026-047 Owner: ZXW Country: CN Constellation: xingwang operational
LEOCIRCULAR

現在のビュー

3D地球を読み込み中...

About WHDW 20-02

WHDW 20-02 (NORAD 68130) is a xingwang constellation satellite launched Mar 12, 2026 by ZXW of CN. It operates in LEO, CIRCULAR orbit with a mass of 700.00 kg.

WHDW 20-02について

説明を読み込み中...

次回通過

Passes for default location (London). Set your location on the main map for personalized predictions.

高度履歴

Loading altitude history...

軌道要素

1 68130U 26047B 26164.46191712 -.00000091 00000-0 71018-4 0 9999
2 68130 50.0038 69.6740 0000505 81.6943 278.3986 13.29332199 12568
Epoch: Jun 13, 2026 • Age: 17 hours

現在のステータス

高度 1149.6 km
速度 7.28 km/s
衛星直下点 2.09°N, 80.29°W
打ち上げ日 Mar 12, 2026
運用期間 0.2 years
タイプ other

技術仕様

分類 Payload
質量 700.00 kg
乾燥質量 700.00 kg
総質量 700.00 kg
長さ 3.00 m
直径 1.00 m
スパン 10.00 m
形状 Box + 2 Pan
製造者 CAST
バスタイプ Xingwang C
フェーズステータス In Orbit
所有者/国 ZXW/CN

Most Searched